Weather History for Tracy, MN

Change the Weather History Date:

Saturday, November 10, 2012

  Actual Average (KMML) Record (KMML)
Temperature  
Mean Temperature 52 °F -  
Max Temperature 64 °F 39 °F 69 °F (1954)
Min Temperature 40 °F 23 °F 0 °F (1986)
Degree Days  
Heating Degree Days 12    
Growing Degree Days 2 (Base 50)    
Moisture  
Dew Point 44 °F    
Average Humidity 83    
Maximum Humidity 95    
Minimum Humidity 58    
Precipitation  
Precipitation 0.32 in - - ()
Sea Level Pressure  
Sea Level Pressure 29.56 in    
Wind  
Wind Speed 10 mph (SSE)    
Max Wind Speed 20 mph    
Max Gust Speed 26 mph    
Visibility 7 miles    
Events Rain , Thunderstorm    
Averages and records for this station are not official NWS values.
T = Trace of Precipitation, MM = Missing Value Source: NWS Daily Summary

Daily Weather History Graph

Daily Weather History Graph

Search for Another Location

Airport:

Trip Planner

Search our weather history database for the weather conditions in past years. The results will help you decide how hot, cold, wet, or windy it might be!

Date:

Astronomy

Nov. 10, 2012 Rise Set
Actual Time 7:12 AM CST 5:00 PM CST
Civil Twilight 6:41 AM CST 5:31 PM CST
Nautical Twilight 6:06 AM CST 6:05 PM CST
Astronomical Twilight 5:32 AM CST 6:39 PM CST
Moon 3:10 AM CST (11/10) 2:53 PM CST (11/10)
Length of Visible Light 10h 49m
Length of Day
9h 48m
Waning Crescent, 14% of the Moon is Illuminated
Nov 10
Waning Crescent
Nov 13
New
Nov 20
First Quarter
Nov 28
Full
Dec 6
Last Quarter

Hourly Weather History & Observations

Time (CST) Temp. Windchill Dew Point Humidity Pressure Visibility Wind Dir Wind Speed Gust Speed Precip Events Conditions
12:13 AM 44.6 °F 37.2 °F 39.2 °F 81% 29.78 in 7.0 mi East 17.3 mph 23.0 mph N/A   Overcast
12:34 AM 44.6 °F 37.8 °F 39.4 °F 82% 29.77 in 7.0 mi ESE 15.0 mph 24.2 mph N/A   Overcast
12:54 AM 44.6 °F 37.4 °F 39.2 °F 81% 29.75 in 7.0 mi ESE 16.1 mph 23.0 mph N/A   Overcast
1:14 AM 44.6 °F 37.2 °F 39.2 °F 81% 29.74 in 7.0 mi ESE 17.3 mph 21.9 mph N/A   Overcast
1:34 AM 44.6 °F 36.9 °F 39.4 °F 82% 29.73 in 7.0 mi ESE 18.4 mph - N/A   Overcast
1:54 AM 44.6 °F 37.8 °F 39.6 °F 82% 29.71 in 7.0 mi East 15.0 mph 21.9 mph N/A   Overcast
2:14 AM 44.6 °F 37.8 °F 39.7 °F 83% 29.71 in 7.0 mi ESE 15.0 mph 21.9 mph N/A   Overcast
2:34 AM 44.6 °F 37.8 °F 39.7 °F 83% 29.70 in 5.0 mi ESE 15.0 mph 20.7 mph N/A   Haze
2:54 AM 44.6 °F 37.8 °F 40.1 °F 84% 29.69 in 5.0 mi ESE 15.0 mph 19.6 mph N/A   Haze
3:14 AM 44.8 °F 41.0 °F 40.3 °F 84% 29.69 in 5.0 mi ESE 6.9 mph 16.1 mph N/A   Haze
3:34 AM 45.0 °F 38.5 °F 40.5 °F 84% 29.68 in 5.0 mi ESE 13.8 mph 18.4 mph N/A   Overcast
3:54 AM 45.0 °F 38.9 °F 40.8 °F 85% 29.66 in 5.0 mi ESE 12.7 mph 16.1 mph N/A   Overcast
4:14 AM 45.5 °F 39.2 °F 41.2 °F 85% 29.65 in 5.0 mi ESE 13.8 mph - N/A   Overcast
4:34 AM 45.5 °F 39.6 °F 41.4 °F 85% 29.64 in 5.0 mi ESE 12.7 mph 18.4 mph N/A   Haze
4:54 AM 45.7 °F 39.8 °F 41.5 °F 85% 29.62 in 5.0 mi ESE 12.7 mph - N/A   Overcast
5:14 AM 45.9 °F 40.0 °F 41.9 °F 86% 29.62 in 5.0 mi ESE 12.7 mph - N/A   Overcast
5:34 AM 46.0 °F 43.9 °F 42.3 °F 87% 29.61 in 5.0 mi ESE 4.6 mph - N/A   Overcast
5:54 AM 46.4 °F - 42.8 °F 87% 29.60 in 5.0 mi Calm Calm - N/A   Overcast
6:14 AM 46.6 °F - 43.2 °F 88% 29.60 in 5.0 mi Calm Calm - N/A   Overcast
6:34 AM 47.3 °F - 43.9 °F 88% 29.60 in 5.0 mi Calm Calm - N/A   Overcast
6:53 AM 47.3 °F - 43.9 °F 88% 29.60 in 5.0 mi Calm Calm - N/A   Overcast
7:14 AM 47.3 °F - 44.1 °F 88% 29.59 in 5.0 mi Calm Calm - N/A   Overcast
7:34 AM 47.3 °F - 44.2 °F 89% 29.59 in 4.0 mi Calm Calm - N/A   Overcast
7:54 AM 47.5 °F - 44.6 °F 90% 29.58 in 4.0 mi Calm Calm - N/A   Overcast
8:14 AM 47.8 °F - 45.0 °F 90% 29.57 in 4.0 mi Calm Calm - N/A   Overcast
8:34 AM 48.2 °F - 45.5 °F 90% 29.57 in 4.0 mi Calm Calm - N/A   Overcast
8:54 AM 49.1 °F - 46.4 °F 90% 29.56 in 4.0 mi Calm Calm - N/A   Overcast
9:13 AM 52.7 °F - 49.6 °F 89% 29.55 in 5.0 mi SE 10.4 mph - N/A   Overcast
9:34 AM 53.2 °F - 50.2 °F 89% 29.53 in 5.0 mi SSE 9.2 mph 17.3 mph N/A   Overcast
9:54 AM 54.5 °F - 51.6 °F 90% 29.52 in 5.0 mi SSE 13.8 mph - N/A   Overcast
10:14 AM 55.0 °F - 51.8 °F 89% 29.52 in 7.0 mi South 16.1 mph - N/A   Overcast
10:34 AM 55.8 °F - 52.0 °F 87% 29.50 in 7.0 mi Calm Calm - N/A   Overcast
10:54 AM 58.5 °F - 52.7 °F 81% 29.50 in 10.0 mi South 8.1 mph 20.7 mph N/A   Mostly Cloudy
11:14 AM 61.5 °F - 52.3 °F 72% 29.49 in 10.0 mi SSW 8.1 mph 16.1 mph N/A   Mostly Cloudy
11:33 AM 62.1 °F - 51.3 °F 68% 29.50 in 10.0 mi South 11.5 mph 20.7 mph N/A   Scattered Clouds
11:54 AM 64.0 °F - 49.3 °F 59% 29.49 in 10.0 mi SSW 12.7 mph 21.9 mph N/A   Clear
12:14 PM 64.4 °F - 49.5 °F 58% 29.48 in 10.0 mi SSW 9.2 mph 20.7 mph N/A   Clear
12:34 PM 63.9 °F - 48.7 °F 58% 29.48 in 10.0 mi SSW 15.0 mph 24.2 mph N/A   Clear
12:54 PM 63.1 °F - 49.3 °F 61% 29.48 in 10.0 mi South 13.8 mph 21.9 mph N/A   Clear
1:14 PM 62.4 °F - 48.2 °F 60% 29.49 in 10.0 mi SSW 19.6 mph 26.5 mph N/A   Clear
1:34 PM 60.1 °F - 47.8 °F 64% 29.48 in 10.0 mi SW 13.8 mph 24.2 mph N/A   Clear
1:54 PM 57.9 °F - 47.8 °F 69% 29.48 in 10.0 mi SW 5.8 mph 17.3 mph N/A   Clear
2:14 PM 54.3 °F - 46.2 °F 74% 29.47 in 10.0 mi SW 11.5 mph 18.4 mph N/A   Clear
2:34 PM 51.6 °F - 45.0 °F 78% 29.49 in 10.0 mi SW 4.6 mph - N/A   Scattered Clouds
2:54 PM 50.2 °F - 44.6 °F 81% 29.51 in 10.0 mi SSW 12.7 mph 18.4 mph N/A   Mostly Cloudy
3:14 PM 49.5 °F - 43.7 °F 81% 29.50 in 10.0 mi SW 17.3 mph 23.0 mph N/A   Overcast
3:34 PM 50.0 °F - 43.7 °F 79% 29.50 in 10.0 mi SW 17.3 mph 23.0 mph N/A   Scattered Clouds
3:54 PM 49.5 °F - 43.5 °F 80% 29.50 in 10.0 mi Calm Calm - N/A   Clear
4:13 PM 49.3 °F - 43.3 °F 80% 29.51 in 10.0 mi Calm Calm - N/A   Clear
4:34 PM 48.6 °F - 43.2 °F 82% 29.51 in 10.0 mi Calm Calm - N/A   Scattered Clouds
4:54 PM 47.7 °F - 43.0 °F 84% 29.51 in 10.0 mi Calm Calm - N/A   Scattered Clouds
5:14 PM 48.2 °F - 43.7 °F 84% 29.51 in 10.0 mi Calm Calm - N/A   Mostly Cloudy
5:34 PM 48.4 °F - 43.9 °F 84% 29.50 in 10.0 mi Calm Calm - N/A   Overcast
5:54 PM 47.1 °F - 43.2 °F 86% 29.48 in 10.0 mi Calm Calm - N/A   Scattered Clouds
6:14 PM 45.7 °F - 42.3 °F 88% 29.46 in 7.0 mi Calm Calm - N/A   Clear
6:34 PM 45.1 °F - 42.6 °F 91% 29.48 in 7.0 mi Calm Calm - N/A   Scattered Clouds
6:53 PM 44.6 °F - 41.7 °F 90% 29.47 in 7.0 mi Calm Calm - N/A Thunderstorm Mostly Cloudy
7:14 PM 45.5 °F - 42.8 °F 90% 29.47 in 7.0 mi Calm Calm - N/A   Mostly Cloudy
7:34 PM 47.3 °F - 43.7 °F 87% 29.52 in 7.0 mi Calm Calm - N/A Thunderstorm Unknown
7:54 PM 47.7 °F - 44.6 °F 89% 29.50 in 7.0 mi Calm Calm - N/A Rain Light Rain
8:14 PM 47.3 °F - 45.0 °F 92% 29.50 in 4.0 mi Calm Calm - 0.07 in Rain , Thunderstorm Heavy Thunderstorms and Rain
8:34 PM 46.9 °F - 45.1 °F 93% 29.52 in 3.0 mi Calm Calm - 0.19 in Rain , Thunderstorm Heavy Thunderstorms and Rain
8:54 PM 46.9 °F - 45.5 °F 95% 29.45 in 3.0 mi Calm Calm - 0.28 in Rain , Thunderstorm Rain
9:13 PM 46.8 °F - 45.5 °F 95% 29.48 in 4.0 mi Calm Calm - 0.01 in Rain Light Rain
9:34 PM 46.9 °F - 45.5 °F 95% 29.51 in 5.0 mi Calm Calm - 0.04 in Rain Light Rain
10:14 PM 45.1 °F - 42.3 °F 90% 29.53 in 10.0 mi Calm Calm - N/A Rain Light Rain
10:34 PM 44.6 °F - 42.1 °F 91% 29.54 in 10.0 mi Calm Calm - N/A   Light Drizzle
10:54 PM 44.2 °F - 41.5 °F 90% 29.55 in 10.0 mi Calm Calm - N/A   Overcast
11:14 PM 42.8 °F 38.6 °F 40.1 °F 90% 29.57 in 10.0 mi WNW 6.9 mph 17.3 mph N/A   Overcast
11:33 PM 41.2 °F - 38.5 °F 90% 29.59 in 10.0 mi Calm Calm - N/A   Overcast
11:54 PM 40.5 °F 34.6 °F 37.6 °F 89% 29.60 in 10.0 mi WNW 9.2 mph - N/A   Overcast